Location: Laura�t
(43.9341°N, 0.2497°E)
Time: 00:37:21
(UTC+00:00)

Meteor 2-20 - Pass Details

Date: 03 March 2021
Orbit: 940 x 958 km, 82.5° (Epoch: 17 April)

Event Time Altitude Azimuth Distance (km) Brightness Sun altitude
Rises 20:29:26 0° 350° (N) 3,622 7.9 -29.0°
Reaches altitude 10° 20:31:56 10° 349° (N) 2,676 7.1 -29.5°
Maximum altitude 20:38:03 78° 264° (W) 974 4.4 -30.5°
Enters shadow 20:38:13 77° 245° (WSW) 976 4.4 -30.5°
